Weather History for Sanford, NC

Change the Weather History Date:

Saturday, November 9, 2013

  Actual Average (KRDU) Record (KRDU)
Temperature  
Mean Temperature 43 °F 54 °F  
Max Temperature 59 °F 66 °F 83 °F (1986)
Min Temperature 27 °F 43 °F 16 °F (1976)
Degree Days  
Heating Degree Days 22 11  
Month to date heating degree days 91  
Since 1 July heating degree days 280  
Cooling Degree Days 0 0  
Month to date cooling degree days 1  
Year to date cooling degree days 1721  
Moisture  
Dew Point 32 °F    
Average Humidity 70    
Maximum Humidity 99    
Minimum Humidity 29    
Precipitation  
Precipitation 0.00 in 0.11 in 3.80 in (1962)
Month to date precipitation 0.96  
Year to date precipitation 38.11  
Snow  
Snow 0.00 in 0.00 in T in (1991)
Month to date snowfall 0.0  
Since 1 July snowfall 0.0  
Since 1 September snowfall 0.0  
Snow Depth -    
Sea Level Pressure  
Sea Level Pressure 30.30 in    
Wind  
Wind Speed 1 mph (SSW)    
Max Wind Speed 9 mph    
Max Gust Speed -    
Visibility 9 miles    
Events      
T = Trace of Precipitation, MM = Missing Value Source: NWS Daily Summary

Daily Weather History Graph

Daily Weather History Graph

Search for Another Location

Airport:

Trip Planner

Search our weather history database for the weather conditions in past years. The results will help you decide how hot, cold, wet, or windy it might be!

Date:

Astronomy

Nov. 09, 2013 Rise Set
Actual Time 6:46 AM EST 5:13 PM EST
Civil Twilight 6:19 AM EST 5:40 PM EST
Nautical Twilight 5:48 AM EST 6:11 PM EST
Astronomical Twilight 5:18 AM EST 6:41 PM EST
Moon 12:24 PM EST (11/9) 11:39 PM EST (11/9)
Length of Visible Light 11h 21m
Length of Day
10h 27m
Waxing Crescent, 44% of the Moon is Illuminated
Nov 9
Waxing Crescent
Nov 10
First Quarter
Nov 17
Full
Nov 25
Last Quarter
Dec 2
New

Hourly Weather History & Observations

Time (EST) Temp. Dew Point Humidity Pressure Visibility Wind Dir Wind Speed Gust Speed Precip Events Conditions
12:15 AM 32.0 °F 31.3 °F 97% 30.34 in 10.0 mi Calm Calm - N/A   Clear
12:35 AM 30.4 °F 29.7 °F 97% 30.34 in 5.0 mi Calm Calm - N/A   Clear
12:55 AM 30.4 °F 29.7 °F 97% 30.34 in 5.0 mi Calm Calm - N/A   Clear
1:15 AM 29.3 °F 28.4 °F 96% 30.34 in 7.0 mi Calm Calm - N/A   Clear
1:35 AM 30.0 °F 29.5 °F 98% 30.33 in 7.0 mi Calm Calm - N/A   Clear
1:55 AM 28.9 °F 28.2 °F 97% 30.34 in 10.0 mi Calm Calm - N/A   Clear
2:15 AM 29.3 °F 28.9 °F 99% 30.34 in 10.0 mi Calm Calm - N/A   Clear
2:35 AM 28.6 °F 27.7 °F 96% 30.34 in 10.0 mi Calm Calm - N/A   Clear
2:55 AM 29.3 °F 28.6 °F 97% 30.34 in 10.0 mi Calm Calm - N/A   Clear
3:15 AM 29.3 °F 28.8 °F 98% 30.34 in 5.0 mi Calm Calm - N/A   Clear
3:35 AM 29.1 °F 28.4 °F 97% 30.34 in 10.0 mi Calm Calm - N/A   Clear
3:55 AM 29.1 °F 28.6 °F 98% 30.33 in 7.0 mi Calm Calm - N/A   Clear
4:15 AM 28.4 °F 27.5 °F 96% 30.34 in 10.0 mi Calm Calm - N/A   Clear
4:35 AM 27.9 °F 27.1 °F 97% 30.34 in 10.0 mi Calm Calm - N/A   Clear
4:55 AM 28.8 °F 27.9 °F 96% 30.34 in 10.0 mi Calm Calm - N/A   Clear
5:15 AM 28.8 °F 28.0 °F 97% 30.34 in 10.0 mi Calm Calm - N/A   Clear
5:35 AM 28.9 °F 28.0 °F 96% 30.35 in 10.0 mi Calm Calm - N/A   Clear
5:55 AM 29.1 °F 28.4 °F 97% 30.35 in 7.0 mi Calm Calm - N/A   Clear
6:15 AM 28.4 °F 27.5 °F 96% 30.36 in 10.0 mi Calm Calm - N/A   Clear
6:35 AM 27.9 °F 27.1 °F 97% 30.37 in 10.0 mi Calm Calm - N/A   Clear
6:55 AM 28.2 °F 27.5 °F 97% 30.37 in 10.0 mi Calm Calm - N/A   Clear
7:15 AM 28.6 °F 27.9 °F 97% 30.38 in 10.0 mi Calm Calm - N/A   Clear
7:35 AM 29.3 °F 28.6 °F 97% 30.38 in 10.0 mi Calm Calm - N/A   Clear
7:55 AM 31.3 °F 30.6 °F 97% 30.38 in 10.0 mi Calm Calm - N/A   Clear
8:15 AM 33.1 °F 32.0 °F 96% 30.38 in 10.0 mi Calm Calm - N/A   Clear
8:35 AM 35.6 °F 33.1 °F 91% 30.38 in 10.0 mi Calm Calm - N/A   Clear
8:55 AM 38.3 °F 34.2 °F 85% 30.38 in 5.0 mi Calm Calm - N/A   Clear
9:15 AM 40.6 °F 31.6 °F 70% 30.39 in 5.0 mi Calm Calm - N/A   Haze
9:35 AM 42.4 °F 32.0 °F 67% 30.38 in 7.0 mi Calm Calm - N/A   Clear
9:55 AM 43.9 °F 32.2 °F 63% 30.39 in 7.0 mi Calm Calm - N/A   Clear
10:15 AM 45.5 °F 32.5 °F 61% 30.39 in 10.0 mi Calm Calm - N/A   Clear
10:35 AM 48.4 °F 33.3 °F 56% 30.38 in 10.0 mi Calm Calm - N/A   Clear
10:55 AM 50.5 °F 32.7 °F 51% 30.37 in 5.0 mi SW 3.5 mph - N/A   Haze
11:15 AM 52.5 °F 30.9 °F 44% 30.36 in 7.0 mi SSW 4.6 mph - N/A   Clear
11:35 AM 55.0 °F 28.6 °F 36% 30.34 in 10.0 mi SSE 4.6 mph - N/A   Clear
11:55 AM 55.6 °F 27.0 °F 33% 30.33 in 7.0 mi SSE 5.8 mph - N/A   Clear
12:15 PM 56.3 °F 26.6 °F 32% 30.32 in 10.0 mi SW 6.9 mph - N/A   Clear
12:35 PM 56.5 °F 26.2 °F 31% 30.31 in 10.0 mi SW 9.2 mph - N/A   Clear
12:55 PM 57.6 °F 27.1 °F 31% 30.30 in 10.0 mi South 8.1 mph - N/A   Clear
1:15 PM 57.6 °F 26.4 °F 30% 30.29 in 10.0 mi SSW 6.9 mph - N/A   Clear
1:35 PM 58.1 °F 26.8 °F 30% 30.29 in 10.0 mi WSW 5.8 mph - N/A   Clear
1:55 PM 58.1 °F 27.3 °F 31% 30.28 in 10.0 mi WSW 8.1 mph - N/A   Clear
2:15 PM 59.0 °F 27.7 °F 30% 30.27 in 10.0 mi SW 6.9 mph - N/A   Clear
2:35 PM 59.9 °F 27.7 °F 29% 30.26 in 10.0 mi SW 6.9 mph - N/A   Clear
2:55 PM 59.2 °F 27.7 °F 30% 30.26 in 10.0 mi WSW 6.9 mph - N/A   Clear
3:15 PM 59.5 °F 27.7 °F 30% 30.26 in 10.0 mi South 5.8 mph - N/A   Clear
3:35 PM 58.8 °F 29.1 °F 32% 30.25 in 10.0 mi SSW 6.9 mph - N/A   Clear
3:55 PM 58.1 °F 29.1 °F 33% 30.26 in 10.0 mi SW 5.8 mph - N/A   Clear
4:15 PM 57.4 °F 30.2 °F 36% 30.26 in 10.0 mi SW 3.5 mph - N/A   Clear
4:35 PM 56.8 °F 30.4 °F 37% 30.26 in 10.0 mi Calm Calm - N/A   Clear
4:55 PM 55.8 °F 31.5 °F 40% 30.26 in 10.0 mi Calm Calm - N/A   Clear
5:15 PM 53.4 °F 34.2 °F 48% 30.26 in 10.0 mi Calm Calm - N/A   Clear
5:35 PM 52.2 °F 35.4 °F 53% 30.26 in 5.0 mi Calm Calm - N/A   Haze
5:55 PM 51.8 °F 36.7 °F 56% 30.26 in 10.0 mi Calm Calm - N/A   Clear
6:15 PM 50.0 °F 36.9 °F 61% 30.27 in 10.0 mi Calm Calm - N/A   Clear
6:35 PM 50.0 °F 36.7 °F 60% 30.26 in 10.0 mi Calm Calm - N/A   Clear
6:55 PM 49.8 °F 37.0 °F 61% 30.25 in 10.0 mi Calm Calm - N/A   Clear
7:15 PM 49.1 °F 39.6 °F 70% 30.24 in 4.0 mi Calm Calm - N/A   Haze
7:35 PM 48.7 °F 39.2 °F 70% 30.22 in 7.0 mi North 3.5 mph - N/A   Clear
7:55 PM 47.3 °F 39.6 °F 74% 30.22 in 5.0 mi Calm Calm - N/A   Haze
8:15 PM 46.8 °F 39.2 °F 75% 30.23 in 10.0 mi Calm Calm - N/A   Clear
8:35 PM 46.4 °F 39.0 °F 75% 30.22 in 5.0 mi Calm Calm - N/A   Haze
8:55 PM 45.5 °F 39.0 °F 78% 30.21 in 7.0 mi Calm Calm - N/A   Clear
9:35 PM 43.9 °F 38.8 °F 82% 30.22 in 10.0 mi Calm Calm - N/A   Clear
9:55 PM 44.2 °F 39.0 °F 82% 30.21 in 10.0 mi Calm Calm - N/A   Clear
10:15 PM 43.9 °F 38.1 °F 80% 30.22 in 10.0 mi Calm Calm - N/A   Clear
10:35 PM 45.5 °F 36.3 °F 70% 30.21 in 10.0 mi Calm Calm - N/A   Clear
10:55 PM 42.6 °F 37.0 °F 81% 30.20 in 10.0 mi Calm Calm - N/A   Clear
11:15 PM 41.9 °F 36.7 °F 82% 30.20 in 10.0 mi Calm Calm - N/A   Clear
11:35 PM 41.9 °F 36.7 °F 82% 30.20 in 7.0 mi Calm Calm - N/A   Clear
11:55 PM 40.3 °F 37.4 °F 89% 30.21 in 7.0 mi Calm Calm - N/A   Clear